Time,TemperatureF,DewpointF,PressureIn,WindDirection,WindDirectionDegrees,WindSpeedMPH,WindSpeedGustMPH,Humidity,HourlyPrecipIn,Conditions,Clouds,dailyrainin,SoftwareType,DateUTC
2013-07-10 00:01:00,60.0,55.0,30.13,SSE,157,4.0,7.0,83,0.00,,,0.00,,2013-07-10 03:01:00,
2013-07-10 00:12:00,60.0,55.0,30.13,SSE,157,4.0,7.0,83,0.00,,,0.00,,2013-07-10 03:12:00,
2013-07-10 00:22:00,60.0,56.0,30.12,SSE,161,5.0,9.0,86,0.00,,,0.00,,2013-07-10 03:22:00,
2013-07-10 00:43:00,60.0,56.0,30.12,SE,145,3.0,6.0,88,0.00,,,0.00,,2013-07-10 03:43:00,
2013-07-10 00:52:00,60.0,57.0,30.12,SE,133,2.0,6.0,89,0.00,,,0.00,,2013-07-10 03:52:00,
2013-07-10 01:01:00,60.0,57.0,30.12,SE,124,2.0,5.0,90,0.00,,,0.00,,2013-07-10 04:01:00,
2013-07-10 01:11:00,60.0,57.0,30.12,SE,124,2.0,5.0,90,0.00,,,0.00,,2013-07-10 04:11:00,
2013-07-10 01:22:00,60.0,57.0,30.12,SE,124,2.0,5.0,90,0.00,,,0.00,,2013-07-10 04:22:00,
2013-07-10 01:33:00,60.0,58.0,30.12,South,174,2.0,5.0,93,0.00,,,0.00,,2013-07-10 04:33:00,
2013-07-10 01:43:00,60.0,58.0,30.12,South,174,2.0,5.0,93,0.00,,,0.00,,2013-07-10 04:43:00,
2013-07-10 01:52:00,60.0,58.0,30.11,South,182,5.0,8.0,93,0.00,,,0.00,,2013-07-10 04:52:00,
2013-07-10 02:02:00,60.0,58.0,30.11,South,169,5.0,9.0,93,0.00,,,0.00,,2013-07-10 05:02:00,
2013-07-10 02:12:00,60.0,58.0,30.11,South,169,5.0,9.0,93,0.00,,,0.00,,2013-07-10 05:12:00,
2013-07-10 02:22:00,59.0,57.0,30.11,South,179,2.0,9.0,92,0.00,,,0.00,,2013-07-10 05:22:00,
2013-07-10 02:32:00,59.0,56.0,30.11,South,189,3.0,6.0,91,0.00,,,0.00,,2013-07-10 05:32:00,
2013-07-10 02:42:00,59.0,56.0,30.11,South,189,3.0,6.0,91,0.00,,,0.00,,2013-07-10 05:42:00,
2013-07-10 02:53:00,59.0,56.0,30.11,South,171,3.0,6.0,90,0.00,,,0.00,,2013-07-10 05:53:00,
2013-07-10 03:01:00,59.0,56.0,30.11,South,180,3.0,6.0,89,0.00,,,0.00,,2013-07-10 06:01:00,
2013-07-10 03:11:00,59.0,56.0,30.11,South,180,3.0,6.0,89,0.00,,,0.00,,2013-07-10 06:11:00,
2013-07-10 03:22:00,59.0,55.0,30.11,South,190,2.0,6.0,87,0.00,,,0.00,,2013-07-10 06:22:00,
2013-07-10 03:32:00,58.0,54.0,30.11,South,190,1.0,3.0,88,0.00,,,0.00,,2013-07-10 06:32:00,
2013-07-10 03:42:00,58.0,54.0,30.11,South,190,1.0,3.0,88,0.00,,,0.00,,2013-07-10 06:42:00,
2013-07-10 04:01:00,57.0,54.0,30.10,South,190,1.0,3.0,89,0.00,,,0.00,,2013-07-10 07:01:00,
2013-07-10 04:12:00,57.0,54.0,30.10,South,190,1.0,3.0,89,0.00,,,0.00,,2013-07-10 07:12:00,
2013-07-10 04:22:00,56.0,53.0,30.10,South,190,0.0,2.0,90,0.00,,,0.00,,2013-07-10 07:22:00,
2013-07-10 04:33:00,56.0,53.0,30.10,South,190,0.0,0.0,91,0.00,,,0.00,,2013-07-10 07:33:00,
2013-07-10 04:43:00,56.0,53.0,30.10,South,190,0.0,0.0,91,0.00,,,0.00,,2013-07-10 07:43:00,
2013-07-10 04:53:00,56.0,53.0,30.10,South,190,0.0,3.0,90,0.00,,,0.00,,2013-07-10 07:53:00,
2013-07-10 05:02:00,55.0,52.0,30.10,South,190,0.0,1.0,91,0.00,,,0.00,,2013-07-10 08:02:00,
2013-07-10 05:11:00,55.0,52.0,30.10,South,190,0.0,1.0,91,0.00,,,0.00,,2013-07-10 08:11:00,
2013-07-10 05:23:00,55.0,53.0,30.10,South,190,0.0,0.0,92,0.00,,,0.00,,2013-07-10 08:23:00,
2013-07-10 05:33:00,55.0,53.0,30.10,South,190,0.0,0.0,94,0.00,,,0.00,,2013-07-10 08:33:00,
2013-07-10 05:42:00,55.0,53.0,30.10,South,190,0.0,0.0,94,0.00,,,0.00,,2013-07-10 08:42:00,
2013-07-10 05:53:00,54.0,52.0,30.10,South,190,0.0,0.0,94,0.00,,,0.00,,2013-07-10 08:53:00,
2013-07-10 06:02:00,54.0,53.0,30.10,South,190,0.0,0.0,95,0.00,,,0.00,,2013-07-10 09:02:00,
2013-07-10 06:12:00,54.0,53.0,30.10,South,190,0.0,0.0,95,0.00,,,0.00,,2013-07-10 09:12:00,
2013-07-10 06:42:00,55.0,54.0,30.10,South,190,0.0,0.0,97,0.00,,,0.00,,2013-07-10 09:42:00,
2013-07-10 06:53:00,55.0,54.0,30.10,South,190,0.0,0.0,97,0.00,,,0.00,,2013-07-10 09:53:00,
2013-07-10 07:01:00,56.0,55.0,30.10,South,190,0.0,0.0,98,0.00,,,0.00,,2013-07-10 10:01:00,
2013-07-10 07:13:00,56.0,55.0,30.10,South,190,0.0,0.0,98,0.00,,,0.00,,2013-07-10 10:13:00,
2013-07-10 07:51:00,-999.0,-99.9,30.10,South,190,0.0,0.0,-999,-99.99,,,-99.99,,2013-07-10 10:51:00,
2013-07-10 08:00:00,-999.0,-99.9,30.10,South,190,1.0,2.0,-999,-99.99,,,-99.99,,2013-07-10 11:00:00,
2013-07-10 08:11:00,63.0,60.0,30.10,SE,135,3.0,6.0,91,0.00,,,0.00,,2013-07-10 11:11:00,
2013-07-10 08:33:00,65.0,59.0,30.10,SSE,152,5.0,8.0,80,0.00,,,0.00,,2013-07-10 11:33:00,
2013-07-10 08:43:00,65.0,59.0,30.10,SSE,152,5.0,8.0,80,0.00,,,0.00,,2013-07-10 11:43:00,
2013-07-10 08:52:00,65.0,58.0,30.09,SSE,152,6.0,10.0,79,0.00,,,0.00,,2013-07-10 11:52:00,
2013-07-10 09:02:00,66.0,59.0,30.09,SE,144,5.0,10.0,77,0.00,,,0.00,,2013-07-10 12:02:00,
2013-07-10 09:11:00,66.0,59.0,30.09,SE,144,5.0,10.0,77,0.00,,,0.00,,2013-07-10 12:11:00,
2013-07-10 09:22:00,66.0,58.0,30.09,SSE,155,6.0,10.0,75,0.00,,,0.00,,2013-07-10 12:22:00,
2013-07-10 09:33:00,66.0,58.0,30.09,SSE,155,6.0,10.0,75,0.00,,,0.00,,2013-07-10 12:33:00,
2013-07-10 09:43:00,66.0,57.0,30.09,SE,140,7.0,12.0,74,0.00,,,0.00,,2013-07-10 12:43:00,
2013-07-10 09:53:00,67.0,57.0,30.08,SSE,158,6.0,12.0,71,0.00,,,0.00,,2013-07-10 12:53:00,
2013-07-10 10:01:00,67.0,56.0,30.09,SSE,148,6.0,12.0,69,0.00,,,0.00,,2013-07-10 13:01:00,
2013-07-10 10:11:00,67.0,56.0,30.09,SSE,148,6.0,12.0,69,0.00,,,0.00,,2013-07-10 13:11:00,
2013-07-10 10:22:00,68.0,56.0,30.08,SSE,167,6.0,12.0,66,0.00,,,0.00,,2013-07-10 13:22:00,
2013-07-10 10:32:00,69.0,56.0,30.08,SE,146,6.0,10.0,64,0.00,,,0.00,,2013-07-10 13:32:00,
2013-07-10 10:43:00,69.0,56.0,30.08,SE,146,6.0,10.0,64,0.00,,,0.00,,2013-07-10 13:43:00,
2013-07-10 10:52:00,69.0,55.0,30.07,SSE,161,6.0,9.0,61,0.00,,,0.00,,2013-07-10 13:52:00,
2013-07-10 11:01:00,70.0,55.0,30.08,SSE,155,5.0,9.0,60,0.00,,,0.00,,2013-07-10 14:01:00,
2013-07-10 11:12:00,70.0,55.0,30.08,SSE,155,5.0,9.0,60,0.00,,,0.00,,2013-07-10 14:12:00,
2013-07-10 11:43:00,70.0,56.0,30.08,South,170,6.0,12.0,62,0.00,,,0.00,,2013-07-10 14:43:00,
2013-07-10 11:53:00,70.0,56.0,30.08,SE,142,6.0,10.0,61,0.00,,,0.00,,2013-07-10 14:53:00,
2013-07-10 12:01:00,71.0,56.0,30.07,SSE,158,6.0,10.0,59,0.00,,,0.00,,2013-07-10 15:01:00,
2013-07-10 12:11:00,71.0,56.0,30.07,SSE,158,6.0,10.0,59,0.00,,,0.00,,2013-07-10 15:11:00,
2013-07-10 12:42:00,73.0,57.0,30.06,SSE,156,6.0,9.0,57,0.00,,,0.00,,2013-07-10 15:42:00,
2013-07-10 12:52:00,73.0,56.0,30.06,SSE,158,6.0,9.0,55,0.00,,,0.00,,2013-07-10 15:52:00,
2013-07-10 13:01:00,73.0,56.0,30.06,SSE,158,6.0,9.0,55,0.00,,,0.00,,2013-07-10 16:01:00,
2013-07-10 13:11:00,74.0,57.0,30.06,SSE,151,6.0,10.0,55,0.00,,,0.00,,2013-07-10 16:11:00,
2013-07-10 13:33:00,74.0,57.0,30.05,SE,139,6.0,12.0,56,0.00,,,0.00,,2013-07-10 16:33:00,
2013-07-10 13:44:00,75.0,58.0,30.05,SE,142,6.0,12.0,55,0.00,,,0.00,,2013-07-10 16:44:00,
2013-07-10 13:53:00,76.0,58.0,30.04,SE,140,7.0,12.0,54,0.00,,,0.00,,2013-07-10 16:53:00,
2013-07-10 14:02:00,76.0,57.0,30.03,SSE,155,6.0,12.0,52,0.00,,,0.00,,2013-07-10 17:02:00,
2013-07-10 14:12:00,76.0,57.0,30.03,SSE,155,6.0,12.0,52,0.00,,,0.00,,2013-07-10 17:12:00,
2013-07-10 14:23:00,77.0,59.0,30.03,SE,140,7.0,12.0,53,0.00,,,0.00,,2013-07-10 17:23:00,
2013-07-10 14:43:00,77.0,58.0,30.02,SSE,157,6.0,12.0,52,0.00,,,0.00,,2013-07-10 17:43:00,
2013-07-10 14:53:00,77.0,59.0,30.02,SE,139,6.0,10.0,53,0.00,,,0.00,,2013-07-10 17:53:00,
2013-07-10 15:02:00,78.0,59.0,30.02,SE,140,6.0,12.0,52,0.00,,,0.00,,2013-07-10 18:02:00,
2013-07-10 15:11:00,78.0,59.0,30.02,SE,140,6.0,12.0,52,0.00,,,0.00,,2013-07-10 18:11:00,
2013-07-10 15:22:00,78.0,60.0,30.02,SSE,147,5.0,12.0,54,0.00,,,0.00,,2013-07-10 18:22:00,
2013-07-10 15:44:00,78.0,60.0,30.01,SSE,159,6.0,12.0,54,0.00,,,0.00,,2013-07-10 18:44:00,
2013-07-10 15:53:00,78.0,60.0,30.01,SE,144,7.0,15.0,54,0.00,,,0.00,,2013-07-10 18:53:00,
2013-07-10 16:01:00,78.0,59.0,30.00,SSE,154,7.0,14.0,53,0.00,,,0.00,,2013-07-10 19:01:00,
2013-07-10 16:11:00,78.0,59.0,30.00,SSE,154,7.0,14.0,53,0.00,,,0.00,,2013-07-10 19:11:00,
2013-07-10 16:22:00,78.0,58.0,29.99,SSE,152,9.0,15.0,51,0.00,,,0.00,,2013-07-10 19:22:00,
2013-07-10 16:32:00,77.0,58.0,29.99,SSE,151,8.0,15.0,52,0.00,,,0.00,,2013-07-10 19:32:00,
2013-07-10 16:42:00,77.0,58.0,29.99,SSE,151,8.0,15.0,52,0.00,,,0.00,,2013-07-10 19:42:00,
2013-07-10 16:53:00,76.0,58.0,29.98,SSE,154,12.0,18.0,53,0.00,,,0.00,,2013-07-10 19:53:00,
2013-07-10 17:02:00,75.0,58.0,29.98,SSE,151,11.0,21.0,56,0.00,,,0.00,,2013-07-10 20:02:00,
2013-07-10 17:11:00,75.0,60.0,29.98,SSE,158,9.0,16.0,60,0.00,,,0.00,,2013-07-10 20:11:00,
2013-07-10 17:22:00,75.0,60.0,29.98,SSE,158,9.0,16.0,60,0.00,,,0.00,,2013-07-10 20:22:00,
2013-07-10 17:32:00,74.0,61.0,29.98,SSE,152,9.0,17.0,64,0.00,,,0.00,,2013-07-10 20:32:00,
2013-07-10 17:43:00,74.0,61.0,29.98,SSE,152,9.0,17.0,64,0.00,,,0.00,,2013-07-10 20:43:00,
2013-07-10 18:01:00,72.0,62.0,29.97,SSE,156,7.0,15.0,70,0.00,,,0.00,,2013-07-10 21:01:00,
2013-07-10 18:11:00,72.0,62.0,29.96,SSE,155,7.0,13.0,72,0.00,,,0.00,,2013-07-10 21:11:00,
2013-07-10 18:22:00,72.0,62.0,29.96,SSE,155,7.0,13.0,72,0.00,,,0.00,,2013-07-10 21:22:00,
2013-07-10 18:32:00,71.0,62.0,29.97,SSE,167,6.0,14.0,74,0.00,,,0.00,,2013-07-10 21:32:00,
2013-07-10 18:42:00,71.0,62.0,29.97,SSE,167,6.0,14.0,74,0.00,,,0.00,,2013-07-10 21:42:00,
2013-07-10 18:52:00,70.0,61.0,29.96,SSE,152,9.0,15.0,74,0.00,,,0.00,,2013-07-10 21:52:00,
2013-07-10 19:01:00,69.0,61.0,29.96,SSE,152,9.0,16.0,77,0.00,,,0.00,,2013-07-10 22:01:00,
2013-07-10 19:11:00,69.0,61.0,29.96,SSE,152,9.0,16.0,77,0.00,,,0.00,,2013-07-10 22:11:00,
2013-07-10 19:21:00,69.0,62.0,29.96,SSE,165,7.0,15.0,79,0.00,,,0.00,,2013-07-10 22:21:00,
2013-07-10 19:33:00,69.0,63.0,29.95,South,170,8.0,16.0,81,0.00,,,0.00,,2013-07-10 22:33:00,
2013-07-10 19:43:00,69.0,63.0,29.95,South,170,8.0,16.0,81,0.00,,,0.00,,2013-07-10 22:43:00,
2013-07-10 19:53:00,68.0,62.0,29.95,South,175,9.0,14.0,82,0.00,,,0.00,,2013-07-10 22:53:00,
2013-07-10 20:01:00,68.0,63.0,29.95,SSE,167,10.0,17.0,83,0.00,,,0.00,,2013-07-10 23:01:00,
2013-07-10 20:11:00,68.0,63.0,29.95,SSE,167,10.0,17.0,83,0.00,,,0.00,,2013-07-10 23:11:00,
2013-07-10 20:22:00,67.0,62.0,29.95,SSE,163,9.0,15.0,85,0.00,,,0.00,,2013-07-10 23:22:00,
2013-07-10 20:32:00,67.0,63.0,29.95,South,170,9.0,16.0,86,0.00,,,0.00,,2013-07-10 23:32:00,
2013-07-10 20:43:00,67.0,63.0,29.95,South,170,9.0,16.0,86,0.00,,,0.00,,2013-07-10 23:43:00,
2013-07-10 20:52:00,66.0,62.0,29.95,South,173,11.0,20.0,87,0.00,,,0.00,,2013-07-10 23:52:00,
2013-07-10 21:01:00,66.0,62.0,29.95,South,170,9.0,20.0,88,0.00,,,0.00,,2013-07-11 00:01:00,
2013-07-10 21:11:00,66.0,62.0,29.95,South,170,9.0,20.0,88,0.00,,,0.00,,2013-07-11 00:11:00,
2013-07-10 21:22:00,66.0,63.0,29.95,South,175,9.0,18.0,90,0.00,,,0.00,,2013-07-11 00:22:00,
2013-07-10 21:32:00,65.0,62.0,29.95,South,169,11.0,18.0,89,0.00,,,0.00,,2013-07-11 00:32:00,
2013-07-10 21:42:00,65.0,62.0,29.95,South,169,11.0,18.0,89,0.00,,,0.00,,2013-07-11 00:42:00,
2013-07-10 21:52:00,65.0,62.0,29.95,South,169,11.0,18.0,89,0.00,,,0.00,,2013-07-11 00:52:00,
2013-07-10 22:01:00,65.0,61.0,29.94,South,173,12.0,20.0,88,0.00,,,0.00,,2013-07-11 01:01:00,
2013-07-10 22:11:00,65.0,61.0,29.94,SSE,160,9.0,17.0,88,0.00,,,0.00,,2013-07-11 01:11:00,
2013-07-10 22:22:00,65.0,61.0,29.94,SSE,160,9.0,17.0,88,0.00,,,0.00,,2013-07-11 01:22:00,
2013-07-10 22:32:00,64.0,61.0,29.94,South,172,10.0,18.0,89,0.00,,,0.00,,2013-07-11 01:32:00,
2013-07-10 22:43:00,64.0,61.0,29.94,South,172,10.0,18.0,89,0.00,,,0.00,,2013-07-11 01:43:00,
2013-07-10 22:52:00,64.0,61.0,29.94,SSE,161,10.0,16.0,89,0.00,,,0.00,,2013-07-11 01:52:00,
2013-07-10 23:02:00,64.0,61.0,29.94,SSE,161,10.0,16.0,89,0.00,,,0.00,,2013-07-11 02:02:00,
2013-07-10 23:11:00,64.0,61.0,29.94,South,169,10.0,16.0,90,0.00,,,0.00,,2013-07-11 02:11:00,
2013-07-10 23:43:00,64.0,62.0,29.94,South,181,10.0,18.0,92,0.00,,,0.00,,2013-07-11 02:43:00,
2013-07-10 23:53:00,64.0,62.0,29.93,South,173,10.0,18.0,92,0.00,,,0.00,,2013-07-11 02:53:00,